Вернуться в каталог

STARLINK-34762

АктивенСвязьVLEO
NORAD 65473·PAYLOAD·🇺🇸 United States

Запущен Sep 3, 2025 с Cape Canaveral Space Force Station

Loading…

Ближайшие Пролёты (ближайшие 24 часа)

TLE

СвежийSource: CelesTrak SupGP

Эпоха: Sep 15, 2026, 03:28 UTC

1 65473C 25195R   26258.14493056 -.00017550  00000+0 -51858-3 0  2589
2 65473  53.1578  94.4386 0001133  84.4745 249.1821 15.34395915    13

Отслеживайте STARLINK-34762 в реальном времени с AllMySat

Download on the App Store